Lid_Strength_Index
-0 -1 -1 -2 -2 -2 -2 -1 -0 -0 -1 -1 -1 -1 -1 -1 -1 0 3 1 0 -2 -1 0 1 1 1 3 3 3 8 10 9 9 8 5 6 4 3 5 4 4 4 3 2
-1 -1 -1 -2 -2 -2 -2 -1 -1 -0 -0 -0 -1 -1 -1 -1 1 3 -1 -2 -2 -2 1 2 3 2 4 4 4 5 8 9 6 6 7 6 6 5 5 5 5 4 3 2 2
-1 -1 -1 -1 -1 -1 -2 -2 -1 -1 -0 -0 -0 -0 -0 -0 3 4 -2 -2 -2 -1 0 1 2 3 5 4 5 5 8 6 6 6 6 6 6 5 6 7 5 5 4 3 3
2 -0 -1 -0 -1 -1 -1 -2 -2 -1 -2 -0 0 0 0 1 10 2 -1 -1 -2 -1 1 2 3 5 6 7 5 7 6 6 6 6 6 6 5 6 5 5 4 3 3 3 3
2 2 -0 -1 -1 -2 -2 -1 -1 -1 -1 -1 -0 0 2 5 6 -0 -1 -1 -1 0 2 3 5 5 7 6 6 7 6 5 5 5 5 5 6 6 5 4 4 3 4 3 3
1 1 1 -1 -1 -1 -1 -1 -1 -2 -1 -1 -2 -1 3 9 2 1 -0 0 1 1 2 3 4 3 5 6 7 5 6 6 5 5 5 6 6 6 5 3 4 4 3 3 3
0 0 1 2 -0 -1 -1 -2 -1 -1 -2 -1 -2 -0 3 6 2 1 1 2 0 1 3 2 2 4 4 6 5 6 8 7 6 6 6 5 8 7 4 4 4 4 3 3 3
1 0 0 1 1 -0 -1 -1 -1 -1 -2 -2 -2 1 5 1 -0 0 -0 1 0 0 1 1 2 4 5 5 6 8 8 10 7 6 6 6 10 6 4 4 5 4 4 3 3
1 0 1 0 0 -0 0 0 -1 -2 -1 -2 1 2 6 1 2 0 0 2 2 1 1 1 3 5 6 9 10 9 11 10 9 6 7 8 9 5 4 5 5 4 4 4 3
1 1 0 1 1 -1 -1 0 0 -1 -1 -0 1 6 6 6 3 1 0 1 3 3 5 5 6 8 9 10 15 12 12 10 10 8 8 9 9 6 5 5 6 5 4 4 4
1 0 0 1 0 -0 -0 1 5 5 4 6 6 7 5 4 1 3 1 3 3 5 9 7 10 12 9 9 9 9 10 11 9 7 9 9 9 7 6 5 5 5 5 4 4
0 1 0 0 0 -0 0 4 3 3 8 5 5 5 4 2 6 4 1 6 7 10 7 9 13 8 7 7 9 10 11 11 9 8 9 9 10 7 6 6 5 5 5 4 4
-0 0 0 -0 -0 1 2 3 0 0 7 7 5 5 5 3 6 6 4 5 8 9 9 11 9 7 8 9 11 10 11 11 11 9 8 10 11 9 7 6 5 5 4 4 4
-0 0 0 -0 2 3 4 1 0 0 12 11 9 7 5 4 7 3 3 5 7 10 9 9 7 8 9 11 10 13 8 9 11 12 15 9 15 9 8 8 7 6 5 5 5
-2 -0 0 -0 3 5 3 -1 1 3 20 8 9 2 5 7 7 7 3 5 9 9 9 11 9 10 11 10 8 11 8 10 10 12 13 12 14 11 9 10 9 7 6 5 5
-1 -2 -1 1 1 1 1 -0 2 14 19 12 9 9 9 8 8 6 6 4 5 8 8 8 7 8 8 8 8 7 10 10 10 12 18 13 13 13 11 9 8 7 7 7 7
-1 -1 -1 -1 4 -0 0 4 14 18 11 13 12 10 10 11 10 9 10 11 11 15 14 11 10 8 7 10 8 9 12 17 19 19 18 11 13 12 9 8 7 7 7 8 8
-1 -1 -1 -0 -1 -0 3 10 18 13 14 9 10 10 13 11 11 10 11 13 9 10 12 15 17 11 8 9 11 12 12 15 19 19 16 11 15 12 8 7 7 8 7 8 8
-1 0 1 -0 -1 0 7 14 15 13 10 11 10 13 13 11 11 11 11 12 10 9 13 14 15 8 8 8 8 12 14 10 14 15 17 13 11 9 8 9 9 9 8 8 8
2 2 3 -1 -1 2 11 14 12 8 9 9 14 12 15 13 13 13 12 9 10 8 8 11 15 11 9 8 8 10 8 15 15 20 21 15 14 13 10 10 9 9 9 8 8
3 6 2 -1 0 7 13 13 11 7 7 10 11 13 12 13 12 13 12 9 8 8 7 8 11 13 10 12 12 12 13 12 12 15 18 18 15 9 10 9 9 8 7 7 8
3 10 1 -0 9 9 12 11 10 9 7 8 8 9 11 11 12 12 12 10 7 7 11 9 10 15 13 9 8 9 11 12 16 18 15 16 15 9 8 7 6 6 7 7 8
8 6 1 2 12 11 9 10 10 10 9 9 10 8 8 11 13 11 10 7 6 8 10 9 13 17 15 12 9 12 10 11 11 14 16 18 15 7 6 7 6 6 7 7 8
6 10 7 6 6 9 11 11 11 9 9 8 9 7 9 10 9 11 10 7 6 7 7 7 11 13 16 13 10 13 11 11 12 16 15 15 13 9 8 8 7 7 7 8 9
6 9 8 11 10 9 9 10 11 12 9 8 10 9 10 12 11 12 9 9 8 7 8 9 14 12 11 10 10 10 11 11 13 13 16 13 13 10 8 7 7 6 6 8 9
7 8 8 9 8 9 9 11 11 11 10 11 11 9 8 11 11 12 10 10 10 8 9 8 14 12 14 11 11 12 10 10 11 11 12 11 11 7 6 6 6 6 6 7 8
5 5 7 9 9 10 10 10 10 9 9 8 8 10 10 9 7 7 6 7 7 9 10 10 13 14 17 12 13 16 12 11 10 9 10 13 10 7 7 7 6 6 6 6 7